EW2817 Weather Reports


Display with metric or nautical units.
time (UTC)temp
F
wind
direction
speed
MPH
gust
MPH
rain 1hr
in
rain 24hr
in
rain mn
in
humidity
%
barometer
mb
20260509234906 70 0 0.0 0.0 0.00 0.00 0.00 77 987.1
20260509231904 71 0 0.0 0.0 0.00 0.00 0.00 75 986.8
20260509230403 72 0 0.0 0.0 0.00 0.00 0.00 74 986.6
20260509224904 72 0 0.0 0.0 0.00 0.00 0.00 72 986.5
20260509221901 72 0 0.0 0.0 0.00 0.00 0.00 73 986.6
20260509220357 72 0 0.0 0.0 0.00 0.00 0.00 71 986.5
20260509214858 72 0 0.0 0.0 0.00 0.00 0.00 72 986.5
20260509213355 73 0 0.0 0.0 0.00 0.00 0.00 72 986.5
20260509211855 73 0 0.0 0.0 0.00 0.00 0.00 70 986.5
20260509210356 73 0 0.0 0.0 0.00 0.00 0.00 71 986.2
20260509204853 73 0 0.0 0.0 0.00 0.00 0.00 68 986.5
20260509201850 72 0 0.0 0.0 0.00 0.00 0.00 69 986.5
20260509200349 73 0 0.0 0.0 0.00 0.00 0.00 71 986.6
20260509194849 72 0 0.0 0.0 0.00 0.00 0.00 69 986.7
20260509193349 73 0 0.0 0.0 0.00 0.00 0.00 68 986.9
20260509191849 73 0 0.0 0.0 0.00 0.00 0.00 68 986.9
20260509190349 73 0 0.0 0.0 0.00 0.00 0.00 68 987.0
20260509184849 73 0 0.0 0.0 0.00 0.00 0.00 68 987.1
20260509183347 73 0 0.0 0.0 0.00 0.00 0.00 66 987.2
20260509181845 75 0 0.0 0.0 0.00 0.00 0.00 62 987.2
20260509180346 76 0 0.0 0.0 0.00 0.00 0.00 58 987.4
20260509174843 75 0 0.0 0.0 0.00 0.00 0.00 61 987.6
20260509173341 74 0 0.0 0.0 0.00 0.00 0.00 62 987.6
20260509170339 73 0 0.0 0.0 0.00 0.00 0.00 63 988.2
20260509163339 73 0 0.0 0.0 0.00 0.00 0.00 63 988.6
20260509161837 72 0 0.0 0.0 0.00 0.00 0.00 65 988.5
20260509160332 72 0 0.0 0.0 0.00 0.00 0.00 65 988.6
20260509154831 72 0 0.0 0.0 0.00 0.00 0.00 66 988.5
20260509150326 69 0 0.0 0.0 0.00 0.00 0.00 70 988.6
20260509143325 66 0 0.0 0.0 0.00 0.00 0.00 76 989.3
20260509141824 65 0 0.0 0.0 0.00 0.00 0.00 79 989.3
20260509140324 64 0 0.0 0.0 0.00 0.00 0.00 82 989.8
20260509134825 63 0 0.0 0.0 0.00 0.00 0.00 84 990.3
20260509133324 61 0 0.0 0.0 0.00 0.00 0.00 89 990.2
20260509131819 59 0 0.0 0.0 0.00 0.00 0.00 92 990.3
20260509130316 58 0 0.0 0.0 0.00 0.00 0.00 93 990.2
20260509123314 56 0 0.0 0.0 0.00 0.00 0.00 95 990.1
20260509121813 55 0 0.0 0.0 0.00 0.00 0.00 95 989.7
20260509120312 54 0 0.0 0.0 0.00 0.00 0.00 95 989.8
20260509114812 53 0 0.0 0.0 0.00 0.00 0.00 95 990.2
20260509111809 53 0 0.0 0.0 0.00 0.00 0.00 95 990.0
20260509110308 52 0 0.0 0.0 0.00 0.00 0.00 94 989.7
20260509103308 52 0 0.0 0.0 0.00 0.00 0.00 94 989.0
20260509101806 52 0 0.0 0.0 0.00 0.00 0.00 94 989.1
20260509100305 52 0 0.0 0.0 0.00 0.00 0.00 94 989.2
20260509093302 53 0 0.0 0.0 0.00 0.00 0.00 93 989.4
20260509091802 53 0 0.0 0.0 0.00 0.00 0.00 92 989.5
20260509090300 53 0 0.0 0.0 0.00 0.00 0.00 92 989.5
20260509084802 53 0 0.0 0.0 0.00 0.00 0.00 92 989.6
20260509083300 53 0 0.0 0.0 0.00 0.00 0.00 91 989.8
20260509081803 53 0 0.0 0.0 0.00 0.00 0.00 90 989.9
20260509080256 54 0 0.0 0.0 0.00 0.00 0.00 89 990.0
20260509074755 54 0 0.0 0.0 0.00 0.00 0.00 88 989.8
20260509073256 55 0 0.0 0.0 0.00 0.00 0.00 87 989.8
20260509071755 55 0 0.0 0.0 0.00 0.00 0.00 86 990.0
20260509070255 55 0 0.0 0.0 0.00 0.00 0.00 86 989.9
20260509064753 56 0 0.0 0.0 0.00 0.00 0.00 85 990.0
20260509063253 56 0 0.0 0.0 0.00 0.00 0.00 84 990.3
20260509061753 56 0 0.0 0.0 0.00 0.00 0.00 83 990.7
20260509060254 56 0 0.0 0.0 0.00 0.00 0.00 81 990.7
20260509054753 56 0 0.0 0.0 0.00 0.00 0.00 81 990.9
20260509053253 56 0 0.0 0.0 0.00 0.00 0.00 80 991.1
20260509043250 57 0 0.0 0.0 0.00 0.00 0.00 76 991.2
20260509041749 57 0 0.0 0.0 0.00 0.00 0.00 76 991.1
20260509040247 58 0 0.0 0.0 0.00 0.00 0.00 73 991.2
20260509033246 58 0 0.0 0.0 0.00 0.00 0.00 72 991.2
20260509031745 58 0 0.0 0.0 0.00 0.00 0.00 71 991.2
20260509030242 58 0 0.0 0.0 0.00 0.00 0.00 69 991.4
20260509024742 58 0 0.0 0.0 0.00 0.00 0.00 70 991.6
20260509023239 58 0 0.0 0.0 0.00 0.00 0.00 69 991.8
20260509020238 59 0 0.0 0.0 0.00 0.00 0.00 69 991.8
20260509013237 59 0 0.0 0.0 0.00 0.00 0.00 70 991.7
20260509011732 60 0 0.0 0.0 0.00 0.00 0.00 69 991.5
20260509010232 60 0 0.0 0.0 0.00 0.00 0.00 67 991.4
20260509004732 60 0 0.0 0.0 0.00 0.00 0.00 68 991.1
20260509003231 61 0 0.0 0.0 0.00 0.00 0.00 67 991.1
20260509001728 62 0 0.0 0.0 0.00 0.00 0.00 65 990.9
20260509000227 64 0 0.0 0.0 0.00 0.00 0.00 62 991.0